2022-043D (52323 NORAD) Tracking and Keplerian Element Data

This shows tracking and keplerian element data for the satellite.

Feedback or suggestion? Click here.




ElementValue
Catalog52323
Name2022-043D
Epoch Orbit432
Epoch Day147.14930851
Epoch Year2022
RAAN224.0806
Inclination97.564
Eccentricity0.0087019
Argument of Perigee283.1668
Mean Anonmoly163.8799
Mean Motion15.45431344
Decay Rate0.00016828
L11 52323U 22043D 22147.14930851 .00016828 00000+0 30580-3 0 9996
L22 52323 97.5640 224.0806 0087019 283.1668 163.8799 15.45431344 4325

Live tracking and technical data element details for 2022-043D (NORAD 52323). 2022-043D can be tracked NOW for your location showing map with azimuth and elevation plus other details from your city location.

Track the satellite on the map from your city or location and see movement details for azimuth, elevation, latitude, longitude, range, height, and movement on the map or in text.







IsCatalogInMostPopularTable: catalog: 52323, numindb: 1
Update: records affected: 1



GetName: 52323 2022-043D

Hit Count: updated at: Sat, 25 Jun 2022 05:03:10 GMT